Location: Bottens
(46.6171°N, 6.6605°E)
Time: 08:34:08
(UTC+00:00)

Cosmos 1825 - Pass Details

Date: 01 November 2021
Orbit: 501 x 504 km, 82.5° (Epoch: 28 November)

Event Time Altitude Azimuth Distance (km) Brightness Sun altitude
Rises 05:34:23 0° 139° (SE) 2,586 6.7 -7.6°
Reaches altitude 10° 05:37:39 10° 107° (ESE) 1,709 6.6 -7.0°
Maximum altitude 05:39:07 12° 84° (E) 1,589 6.0 -6.8°
Drops below altitude 10° 05:40:35 10° 61° (ENE) 1,715 5.6 -6.5°
Sets 05:43:52 0° 30° (NNE) 2,606 6.0 -6.0°
